CZ-3C DEB, 40869

Orbit data source: Space-Track

CZ-3C DEB, 40869 is space debris originally from a launch on Fri, 24 Feb 2012 UTC launched from the Xichang Space Center, China (XSC). Debris objects in space refer to the collection of defunct objects orbiting the Earth. Examples of debris include non-operational satellites, rocket bodies, and fragments generated from explosions, collisions, or faulty payload assembly.

Loading next visibility...
CZ-3C DEB details
Identifier
40869, 2012-008AK
Orbit
Molniya
Last TLE update2 weeks ago
Origin
Flag of CNCASC (CN / PRC)
ManufacturerCALT
MissionSpacecraft
Bus & MotorUnknown
MassUnknown
Launch date (UTC)
2012-02-24 (13 years ago)
Launch vehicleUnknown
Launch site
Xichang Space Center, China (XSC)
Object type
Payload
Rocket body
Debris
Shape & HBRUnknown
Radar Cross SectionMedium (>0.1 m² and <1 m²)

Expand to show TLE details & history

TLE from 2 weeks ago
0 CZ-3C DEB
1 40869U 12008AK  24324.16451690  .00000314  00000-0  20061-1 0  9993
2 40869  18.4229  10.7373 7231188   4.0775 359.7529  2.07900684 87291
Epoch: 2024-11-19T03:56Z
Definitive object data (Epoch: 2024-11-19T03:56:54.26Z)
Latitude0.00007°
Longitude-107.1693°
Altitude809.74 km
Speed9.774 km/s
True Right ascension00h 42m 56s
True Declination0° 00' 00"
Sunlit
Object was in full shadow at TLE epoch
Visualization TLE readout
Latitude-6.44185°
Longitude87.9461°
Altitude37,196.92 km
Speed1.71 km/s
Apparent Right ascension14h 07m 15s
Apparent Declination-11° 15' 14"
Sunlit
Object is in daylight
Visualization observer readout
Local Sidereal Time06:34:02
Azimuth83.709° E
Elevation-25.014°
Doppler factor1
Orbital elements
Apogee altitude38,312.866 km
Perigee altitude803.085 km
Semi-major axis25,936.112 km
Eccentricity0.7231188
Inclination18.4229°
RAAN10.7373°
Arg. of periapsis4.0775°
True anomaly357.77414°
Mean anomaly359.7529°
Eccentric anomaly359.10765°
Mean motion0.51962 °/min
BSTAR0.020061
Orbital period692.81 mins
Loading maneuver chart data...
Loading historical data...
Loading historical data...
Loading historical data...
Loading historical data...
Loading historical data...
Loading historical data...
Loading historical data...

CZ-3C DEB Visibility forecast

Observer location: undefined°, undefined

Span
Click to sort rows by Start time (UTC) header in descending order
Start Az.
Max El. time (UTC)
Max El. Az.
Max El.
End time (UTC)
End Az.
333 mins2024-12-04 13:59:52.928Z261.534° W2024-12-04 15:16:52.928Z233.233° WSW29.643°2024-12-04 19:32:52.928Z246.581° WSW
|